Regional Weather Roundup
Issued by NWS Northern Indiana

Home | Current Version | Previous Version | Graphics & Text | Print | Product List | Glossary On
Versions: 1 2 3 4 5 6 7 8 9 10 11 12 13 14 15 16 17 18 19 20 21 22 23 24 25 26 27 28 29 30 31 32 33 34 35 36 37 38 39 40 41 42 43 44 45 46 47 48 49 50
000
ASUS43 KIWX 220110
RWRIWX

KIWX WEATHER ROUNDUP
NATIONAL WEATHER SERVICE NORTHERN INDIANA
900 PM EDT MON AUG 21 2017

NOTE: "FAIR" INDICATES FEW OR NO CLOUDS BELOW 12,000 FEET WITH NO
SIGNIFICANT WEATHER AND/OR OBSTRUCTIONS TO VISIBILITY.

* THESE STATIONS ARE NOT UNDER NWS QUALITY CONTROL. THEY ALSO MAY NOT
  REPORT WEATHER SUCH AS PRECIPITATION OR FOG.

INZ001>027-220200-
NORTHERN INDIANA

CITY           SKY/WX    TMP DP  RH WIND       PRES   REMARKS
GARY*          PTCLDY    81  72  74 SW6       29.99F
VALPARAISO     PTCLDY    80  73  79 SW7       30.02S
MICHIGAN CITY* CLOUDY    77  70  78 SW5       30.01F
LAPORTE*       PTCLDY    77  71  82 SW3       30.02S
KNOX*          PTCLDY    75  72  88 SW5       30.01S
SOUTH BEND     CLOUDY    79  72  79 SW8       30.02S
ELKHART*       CLOUDY    79  70  73 SW9       30.00F
GOSHEN         CLOUDY    77  70  79 S6        30.01F
MONTICELLO*    RAIN      77  73  86 W6        30.04R
LOGANSPORT*    CLOUDY    75  70  83 S10       30.04F
ROCHESTER*     PTCLDY    81  70  69 SW7       30.03S
WARSAW*        MOCLDY    79  72  78 CALM      30.03F
AUBURN*        MOCLDY    79  70  73 SW6       30.04S
FORT WAYNE     MOCLDY    77  68  73 SW7       30.04F
HUNTINGTON*    CLOUDY    76  70  80 S5        30.03S
PERU/GRISSOM   MOCLDY    76  72  87 S7        30.04S
MARION*        PTCLDY    73  70  88 SW6       30.07R

$$
INZ028>050-220200-
CENTRAL INDIANA

CITY           SKY/WX    TMP DP  RH WIND       PRES   REMARKS
LAFAYETTE      CLOUDY    77  72  84 SW3       30.03S
KOKOMO*        MOCLDY    76  69  79 SW8       30.06S
MUNCIE*        PTCLDY    79  70  74 SW10      30.07R
INDIANAPOLIS   CLOUDY    76  72  87 S5        30.06S

$$
MIZ043>046-050>051-056>058-064>065-071>073-077>080-220200-
SOUTHWEST LOWER MICHIGAN

CITY           SKY/WX    TMP DP  RH WIND       PRES   REMARKS
BATTLE CREEK   CLOUDY    78  69  73 S8        30.01S
BENTON HARBOR  LGT RAIN  81  70  69 S7        30.00R
COLDWATER*     MOCLDY    78  68  71 CALM      30.01F
HILLSDALE*     CLOUDY    75  66  73 SW3       30.02F
HOLLAND        CLOUDY    75  69  81 SW10      30.00S
GRAND RAPIDS   MOCLDY    76  70  82 S16       29.98S
KALAMAZOO      MOCLDY    80  67  64 S7        30.00S
STURGIS*       CLOUDY    76  69  79 S5        30.01S
THREE RIVERS*  FAIR      79  70  73 S6        30.01S

$$
OHZ001>008-015>018-024>025-220200-
NORTHWEST OHIO

CITY           SKY/WX    TMP DP  RH WIND       PRES   REMARKS
WAUSEON*         N/A     81  72  74 SW8       30.01F
DEFIANCE       PTCLDY    78  71  79 S6        30.02F
FINDLAY        MOCLDY    77  69  76 S8        30.03S
TOLEDO EXPRESS CLOUDY    78  73  84 S5        30.01S
TOLEDO METCALF CLOUDY    81  75  82 S9        30.02S
LIMA           CLEAR     76  71  85 SW9       30.06S

$$
AND FOR LAKE MICHIGAN COASTAL AND OPEN LAKE BUOY OBSERVATIONS

STATION/POSITION TEMP    WIND        PRES    VSBY  WAVE
                 AIR SEA DIR/SP/G                  HT/PER
                 (F)     (DEG/KT/KT) (MB)    (MI)  (FT/S)
CALUMET HARBOR    79     200/  7/ 12 1014.6F
MICHIGAN CITY     80     210/ 10/ 11   N/A
BURNS HARBOR      80     210/  9/ 19 1015.9
SAINT JOSEPH      79     200/  6/ 12 1016.6
SOUTH LAKE BUOY   74 72  160/ 12/ 16 1014.2F         1/ 3
4 MI NW BRIDGMAN  77 74  220/  6/  8 1015.3          1/ 2
MICHIGAN CITY     79 76  210/ 10/ 12   N/A           1

$$
&&




USA.gov is the U.S. government's official web portal to all federal, state and local government web resources and services.